Flag for Germany Weather past 2 weeks in Ellwangen (Jagst), Baden-Württemberg, Germany

Now
58 °F

Scattered clouds.


Feels Like: 59 °F
Forecast: 38 / 59 °F
Wind: 3 mph from Northwest

Location: Stoetten

Current Time: Apr 21, 2015 at 1:46:05 PM

Latest Report: Apr 21, 2015 at 1:00 PM


Visibility: 44 mi

Pressure: 30.36 "Hg

Humidity: 51%

Dew point: 40 °F

Location of Ellwangen (Jagst)Location

Historic Weather in Ellwangen (Jagst) — Graph

°F

Ellwangen (Jagst) temperature yesterday

Maximum temperature yesterday: 58 °F (at 4:00 PM)
Minimum temperature yesterday: 41 °F (at 7:00 AM)
Average temperature yesterday: 49 °F

Past Weeks' High & Low Weather Summary

 TemperatureHumidityPressure
High70 °F (Apr 15, 5:00 PM)97% (Apr 17, 7:00 AM)30.65 "Hg (Apr 17, 7:00 AM)
Low30 °F (Apr 7, 7:00 AM)24% (Apr 15, 5:00 PM)29.87 "Hg (Apr 17, 3:00 PM)
Average49 °F58%30.26 "Hg
* Reported Apr 6 1:00 PM — Apr 21 1:00 PM, Ellwangen (Jagst), Weather by CustomWeather, © 2015

Note: Actual official high and low records may vary slightly from our data, if they occured in-between our weather recording intervals... More about our weather records

Advertising

Ellwangen (Jagst) weather history for previous 24 hours

 ConditionsComfort  
Time TempWeatherWind HumidityBarometerVisibility
1:00 PM
Tue, Apr 21
58 °FScattered clouds.3 mph51%30.36 "Hg43 mi
12:00 PM56 °FScattered clouds.3 mph51%30.37 "Hg43 mi
11:00 AM54 °FScattered clouds.5 mph51%30.37 "Hg40 mi
10:00 AM53 °FScattered clouds.2 mph51%30.37 "Hg40 mi
9:00 AM51 °FPartly sunny.3 mph56%30.37 "Hg43 mi
8:00 AM48 °FSunny.3 mph58%30.38 "Hg28 mi
7:00 AM47 °FScattered clouds.2 mph58%30.37 "Hg47 mi
6:00 AM46 °FPassing clouds.2 mph60%30.35 "Hg47 mi
5:00 AM46 °FClear.2 mph58%30.35 "Hg34 mi
4:00 AM46 °FClear.3 mph58%30.35 "Hg31 mi
3:00 AM46 °FClear.5 mph58%30.35 "Hg34 mi
2:00 AM47 °FClear.5 mph56%30.34 "Hg34 mi
1:00 AM49 °FClear.6 mph52%30.33 "Hg31 mi
12:00 AM46 °FClear.5 mph57%30.34 "Hg28 mi
11:00 PM
Mon, Apr 20
50 °FClear.3 mph49%30.32 "Hg28 mi
10:00 PM49 °FClear.3 mph50%30.31 "Hg22 mi
9:00 PM49 °FClear.2 mph51%30.30 "Hg22 mi
8:00 PM53 °FSunny.6 mph46%30.26 "Hg22 mi
7:00 PM55 °FSunny.6 mph45%30.23 "Hg19 mi
6:00 PM57 °FSunny.5 mph38%30.22 "Hg22 mi
5:00 PM57 °FSunny.6 mph40%30.21 "Hg31 mi
4:00 PM58 °FSunny.6 mph34%30.22 "Hg34 mi
3:00 PM57 °FSunny.5 mph39%30.22 "Hg37 mi
2:00 PM56 °FSunny.5 mph39%30.23 "Hg43 mi
1:00 PM54 °FSunny.5 mph45%30.24 "Hg43 mi
Weather by CustomWeather, © 2015

See weather overviewHow to use our weather pages